DG5MG Weather Reports


time (UTC)temp
F
wind
direction
speed
knots
gust
knots
rain 1hr
in
rain 24hr
in
rain mn
in
humidity
%
barometer
mb
20260506002504 50 286 0.0 0.9 0.00 0.18 0.00 97 1013.9
20260506001504 51 281 1.7 4.3 0.00 0.18 0.00 97 1013.9
20260506001004 51 233 0.0 0.9 0.00 0.18 0.00 97 1014.2
20260506000504 51 341 0.0 0.9 0.00 0.18 0.00 97 1014.2
20260506000004 51 276 0.0 0.0 0.00 0.18 0.00 97 1014.2
20260505235504 51 277 0.0 0.9 0.00 0.18 0.00 97 1014.2
20260505235004 51 292 0.0 2.6 0.00 0.18 0.00 97 1014.2
20260505234003 51 240 0.0 0.9 0.00 0.18 0.00 97 1014.6
20260505233519 51 114 0.0 0.0 0.00 0.18 0.00 97 1014.6
20260505232504 51 112 0.0 0.0 0.00 0.18 0.00 97 1014.2
20260505232004 51 122 0.0 0.0 0.00 0.18 0.00 97 1014.6
20260505231504 51 223 0.0 1.7 0.00 0.18 0.00 97 1014.2
20260505231004 52 282 0.9 1.7 0.00 0.18 0.00 96 1014.6
20260505230504 52 255 0.0 0.9 0.00 0.18 0.00 96 1014.2
20260505230004 52 289 1.7 5.2 0.00 0.18 0.00 96 1014.3
20260505225504 52 297 2.6 5.2 0.00 0.18 0.00 97 1014.6
20260505225004 52 266 0.9 1.7 0.00 0.18 0.00 97 1014.2
20260505224504 52 237 0.0 1.7 0.00 0.18 0.00 97 1014.2
20260505224004 52 294 0.9 1.7 0.00 0.18 0.00 97 1014.2
20260505223504 52 295 0.9 2.6 0.00 0.18 0.00 97 1014.2
20260505222504 53 162 0.0 0.9 0.00 0.18 0.00 97 1014.6
20260505222004 53 226 0.0 0.9 0.00 0.18 0.00 97 1014.6
20260505221504 53 297 0.0 0.9 0.00 0.18 0.00 97 1014.6
20260505221004 53 163 0.0 0.9 0.01 0.18 0.00 97 1014.7
20260505220504 53 159 0.9 4.3 0.01 0.18 0.00 97 1014.9
20260505220004 53 334 1.7 4.3 0.04 0.18 0.00 97 1014.9
20260505215004 53 15 0.0 0.0 0.07 0.18 0.18 97 1014.9
20260505214504 53 236 0.0 0.0 0.07 0.18 0.18 97 1014.9
20260505214004 53 172 0.0 0.0 0.10 0.18 0.18 97 1014.7
20260505212504 53 137 0.0 1.7 0.13 0.18 0.18 96 1014.9
20260505212004 53 81 0.9 1.7 0.16 0.18 0.18 96 1014.9
20260505211504 54 231 0.0 0.9 0.16 0.18 0.18 96 1014.9
20260505210503 54 326 4.3 6.1 0.16 0.17 0.17 96 1014.9
20260505210004 54 317 1.7 4.3 0.13 0.14 0.14 96 1014.9
20260505205004 54 275 0.0 0.0 0.10 0.11 0.11 95 1014.6
20260505204504 54 292 0.0 0.0 0.10 0.11 0.11 94 1014.6
20260505204004 54 299 0.9 2.6 0.07 0.08 0.08 94 1014.6
20260505202504 55 314 0.0 5.2 0.04 0.05 0.05 92 1014.2
20260505202004 56 252 4.3 5.2 0.01 0.02 0.02 90 1014.2
20260505201504 56 263 4.3 5.2 0.01 0.02 0.02 89 1014.1
20260505201004 56 289 4.3 6.1 0.01 0.01 0.01 87 1013.9
20260505200504 56 280 5.2 6.1 0.01 0.01 0.01 86 1013.9
20260505195004 56 274 1.7 4.3 0.01 0.01 0.01 86 1013.6
20260505194504 56 278 2.6 6.1 0.01 0.01 0.01 86 1013.5
20260505194004 56 270 5.2 6.1 0.01 0.01 0.01 86 1013.2
20260505193504 56 277 2.6 2.6 0.01 0.01 0.01 87 1013.2
20260505193004 57 287 0.0 0.0 0.01 0.01 0.01 86 1012.9
20260505192504 58 358 0.0 0.0 0.01 0.01 0.01 84 1012.5
20260505192004 58 328 0.0 0.0 0.01 0.01 0.01 83 1012.5
20260505191004 59 276 1.7 2.6 0.00 0.00 0.00 77 1012.5
20260505190504 59 276 1.7 1.7 0.00 0.00 0.00 77 1012.5
20260505190004 60 276 1.7 1.7 0.00 0.00 0.00 73 1012.2
20260505185504 60 277 0.9 1.7 0.00 0.00 0.00 71 1012.4
20260505184503 60 257 1.7 2.6 0.00 0.00 0.00 69 1012.2
20260505184004 61 259 0.0 0.0 0.00 0.00 0.00 70 1012.2
20260505183504 61 289 0.0 0.0 0.00 0.00 0.00 69 1012.2
20260505183004 61 278 1.7 1.7 0.00 0.00 0.00 69 1012.2
20260505182505 61 274 1.7 4.3 0.00 0.00 0.00 69 1012.2
20260505182004 61 300 1.7 4.3 0.00 0.00 0.00 67 1012.2
20260505181504 61 288 2.6 4.3 0.00 0.00 0.00 65 1012.2
20260505181004 61 288 2.6 4.3 0.00 0.00 0.00 65 1012.2
20260505180005 62 252 1.7 5.2 0.00 0.00 0.00 68 1012.2
20260505175503 62 252 1.7 5.2 0.00 0.00 0.00 68 1012.2
20260505175004 62 276 0.0 1.7 0.00 0.00 0.00 69 1011.9
20260505174004 62 269 0.9 1.7 0.00 0.00 0.00 68 1012.2
20260505173505 63 263 0.9 2.6 0.00 0.00 0.00 67 1011.9
20260505173004 63 348 0.9 2.6 0.00 0.00 0.00 66 1011.9
20260505172504 63 348 0.9 2.6 0.00 0.00 0.00 66 1011.9
20260505171504 64 292 4.3 5.2 0.00 0.00 0.00 67 1011.9
20260505171004 64 292 3.5 5.2 0.00 0.00 0.00 67 1011.9
20260505170504 64 259 0.9 2.6 0.00 0.00 0.00 69 1011.9
20260505170004 65 274 0.9 2.6 0.00 0.00 0.00 70 1011.5
20260505165505 65 274 0.9 2.6 0.00 0.00 0.00 70 1011.5
20260505165005 65 59 1.7 4.3 0.00 0.00 0.00 70 1011.5
20260505164504 65 341 1.7 4.3 0.00 0.00 0.00 70 1011.5
20260505164005 65 341 1.7 4.3 0.00 0.00 0.00 70 1011.5
20260505163504 66 271 0.9 6.1 0.00 0.00 0.00 69 1011.9
20260505163004 66 259 4.3 6.1 0.00 0.00 0.00 67 1011.9
20260505162504 66 259 3.5 6.1 0.00 0.00 0.00 67 1011.9
20260505162004 67 116 0.0 0.0 0.00 0.00 0.00 66 1011.5
20260505161504 67 169 0.0 0.0 0.00 0.00 0.00 68 1011.9
20260505161004 67 169 0.0 0.0 0.00 0.00 0.00 68 1011.9
20260505160504 67 117 0.0 0.0 0.00 0.00 0.00 66 1012.2
20260505153004 65 124 0.0 0.0 0.00 0.00 0.00 69 1011.9
20260505152004 64 125 0.0 0.9 0.00 0.00 0.00 69 1011.9
20260505151004 63 271 0.0 0.9 0.00 0.00 0.00 72 1011.9
20260505150504 64 271 0.0 0.0 0.00 0.00 0.00 75 1011.9
20260505140504 68 282 4.3 8.7 0.00 0.00 0.00 55 1011.5
20260505125006 72 294 1.7 4.3 0.00 0.00 0.00 43 1011.5
20260505124006 73 284 1.7 5.2 0.00 0.00 0.00 41 1011.5
20260505123506 74 256 4.3 5.2 0.00 0.00 0.00 40 1011.5
20260505123006 75 302 0.9 1.7 0.00 0.00 0.00 40 1011.2
20260505122506 75 302 0.9 1.7 0.00 0.00 0.00 40 1011.2
20260505122006 74 293 0.9 1.7 0.00 0.00 0.00 40 1011.5
20260505121506 74 279 0.9 1.7 0.00 0.00 0.00 41 1011.9
20260505121005 74 279 0.9 1.7 0.00 0.00 0.00 41 1011.9
20260505120506 73 280 1.7 4.3 0.00 0.00 0.00 41 1011.9
20260505120006 73 233 1.7 4.3 0.00 0.00 0.00 42 1011.5
20260505115506 73 233 1.7 4.3 0.00 0.00 0.00 42 1011.5
20260505115006 73 294 0.0 0.9 0.00 0.00 0.00 42 1011.5
20260505114506 75 300 0.9 0.9 0.00 0.00 0.00 40 1011.5
20260505114006 75 300 0.9 0.9 0.00 0.00 0.00 40 1011.5
20260505113506 76 188 0.0 0.9 0.00 0.00 0.00 39 1011.5
20260505113006 77 327 0.0 0.9 0.00 0.00 0.00 40 1011.8
20260505112506 77 352 0.0 2.6 0.00 0.00 0.00 40 1011.9
20260505111506 74 153 0.9 2.6 0.00 0.00 0.00 42 1011.9
20260505111006 73 184 0.9 4.3 0.00 0.00 0.00 43 1011.9
20260505101505 75 69 0.9 1.7 0.00 0.00 0.00 38 1012.6
20260505100006 72 236 0.9 0.9 0.00 0.00 0.00 43 1012.5
20260505095505 73 153 0.0 0.9 0.00 0.00 0.00 43 1012.5
20260505095005 75 245 0.0 0.9 0.00 0.00 0.00 40 1012.9
20260505093506 74 115 0.9 1.7 0.00 0.00 0.00 41 1013.2
20260505093006 74 115 1.7 4.3 0.00 0.00 0.00 41 1013.2
20260505092505 73 88 2.6 4.3 0.00 0.00 0.00 43 1013.2
20260505092005 72 124 2.6 4.3 0.00 0.00 0.00 44 1013.2
20260505091505 72 124 2.6 4.3 0.00 0.00 0.00 44 1013.2
20260505091006 72 121 2.6 4.3 0.00 0.00 0.00 44 1013.2
20260505090006 72 218 0.9 4.3 0.00 0.00 0.00 46 1013.5
20260505085006 71 242 0.0 0.0 0.00 0.00 0.00 50 1013.5
20260505084505 71 242 0.0 1.7 0.00 0.00 0.00 50 1013.5
20260505084006 69 106 0.9 1.7 0.00 0.00 0.00 52 1013.5
20260505083505 69 108 1.7 1.7 0.00 0.00 0.00 54 1013.5
20260505082505 68 113 0.0 0.9 0.00 0.00 0.00 56 1013.5
20260505082006 66 109 0.9 0.9 0.00 0.00 0.00 61 1013.9
20260505081505 66 109 0.9 1.7 0.00 0.00 0.00 61 1013.9
20260505081006 69 120 1.7 1.7 0.00 0.00 0.00 58 1013.9
20260505080505 66 117 0.9 0.9 0.00 0.00 0.00 62 1013.9
20260505075506 66 118 0.9 1.7 0.00 0.00 0.00 65 1013.9
20260505075006 65 130 0.9 1.7 0.00 0.00 0.00 67 1013.9
20260505074506 65 130 1.7 5.2 0.00 0.00 0.00 67 1013.9
20260505072506 62 204 0.0 1.7 0.00 0.00 0.00 74 1014.6
20260505072006 62 97 0.9 1.7 0.00 0.00 0.00 73 1014.2
20260505071506 62 94 0.9 1.7 0.00 0.00 0.00 73 1014.2
20260505070006 61 132 0.9 2.6 0.00 0.00 0.00 75 1014.3
20260505065505 61 126 0.0 0.9 0.00 0.00 0.00 75 1014.6
20260505065005 60 242 0.0 0.9 0.00 0.00 0.00 76 1014.2
20260505064505 61 131 0.9 0.9 0.00 0.00 0.00 75 1014.2
20260505064006 61 118 0.9 0.9 0.00 0.00 0.00 73 1014.2
20260505063506 60 139 0.0 0.9 0.00 0.00 0.00 75 1014.2
20260505063005 60 251 0.9 0.9 0.00 0.00 0.00 75 1014.2
20260505062506 60 263 0.9 0.9 0.00 0.00 0.00 75 1014.2
20260505062006 58 238 0.0 0.0 0.00 0.00 0.00 79 1014.6
20260505061505 58 127 0.0 0.0 0.00 0.00 0.00 79 1014.3
20260505061006 58 101 0.0 0.0 0.00 0.00 0.00 79 1014.2
20260505060505 57 124 0.0 0.0 0.00 0.00 0.00 80 1014.6
20260505060005 57 118 0.0 0.9 0.00 0.00 0.00 80 1014.3
20260505055507 57 101 0.0 0.9 0.00 0.00 0.00 80 1014.2
20260505055006 56 123 0.0 0.0 0.00 0.00 0.00 82 1014.6
20260505054506 56 124 0.0 0.0 0.00 0.00 0.00 82 1014.6
20260505053005 55 121 0.9 0.9 0.00 0.00 0.00 82 1014.6
20260505052505 55 121 0.9 0.9 0.00 0.00 0.00 82 1014.6
20260505052006 55 114 0.0 0.9 0.00 0.00 0.00 83 1014.2
20260505051506 54 121 0.0 0.9 0.00 0.00 0.00 84 1014.5
20260505051006 54 121 0.0 0.0 0.00 0.00 0.00 85 1014.6
20260505041506 48 126 0.0 0.0 0.00 0.00 0.00 95 1014.6
20260505040505 48 126 0.0 0.0 0.00 0.00 0.00 95 1014.6
20260505035006 48 126 0.0 0.0 0.00 0.00 0.00 95 1014.6
20260505034505 48 126 0.0 0.0 0.00 0.00 0.00 95 1014.6
20260505033505 48 126 0.0 0.0 0.00 0.00 0.00 94 1014.8
20260505033005 48 126 0.0 0.0 0.00 0.00 0.00 94 1014.9
20260505032005 49 126 0.0 0.0 0.00 0.00 0.00 94 1014.9
20260505031505 49 126 0.0 0.0 0.00 0.00 0.00 94 1014.9
20260505031005 49 126 0.0 0.0 0.00 0.00 0.00 94 1014.9
20260505030505 49 126 0.0 0.0 0.00 0.00 0.00 94 1014.9
20260505030005 49 127 0.0 0.0 0.00 0.00 0.00 94 1014.9
20260505025505 49 119 0.0 0.0 0.00 0.00 0.00 94 1014.9
20260505025006 49 114 0.0 0.0 0.00 0.00 0.00 93 1014.9
20260505024505 50 114 0.0 0.0 0.00 0.00 0.00 93 1014.9
20260505024005 50 114 0.0 0.0 0.00 0.00 0.00 93 1015.1
20260505023505 50 114 0.0 0.0 0.00 0.00 0.00 93 1015.2
20260505023005 50 114 0.0 0.0 0.00 0.00 0.00 93 1015.2
20260505022505 50 125 0.0 0.0 0.00 0.00 0.00 92 1015.2
20260505022005 50 148 0.0 0.0 0.00 0.00 0.00 92 1015.2
20260505021506 50 238 0.0 0.0 0.00 0.00 0.00 92 1015.2
20260505021004 50 254 0.0 0.0 0.00 0.00 0.00 92 1015.2
20260505020505 51 293 0.0 0.0 0.00 0.00 0.00 91 1015.2
20260505020005 51 293 0.0 0.0 0.00 0.00 0.00 91 1015.2
20260505015505 51 293 0.0 0.0 0.00 0.00 0.00 91 1015.6
20260505015005 51 293 0.0 0.0 0.00 0.00 0.00 91 1015.2
20260505014505 52 293 0.0 0.0 0.00 0.00 0.00 90 1015.2
20260505013505 52 293 0.0 0.0 0.00 0.00 0.00 89 1015.6
20260505012005 52 277 0.0 0.0 0.00 0.00 0.00 88 1015.6
20260505011505 52 277 0.0 0.0 0.00 0.00 0.00 88 1015.6
20260505011005 53 277 0.0 0.0 0.00 0.00 0.00 87 1015.6
20260505010005 53 276 0.0 0.0 0.00 0.00 0.00 86 1015.6
20260505005505 53 286 0.0 0.0 0.00 0.00 0.00 85 1015.6
20260505004505 54 296 0.0 0.0 0.00 0.00 0.00 84 1015.6
20260505004005 54 267 0.0 1.7 0.00 0.00 0.00 84 1015.9
20260505003505 54 272 0.9 1.7 0.00 0.00 0.00 84 1015.9
20260505003004 54 285 0.9 1.7 0.00 0.00 0.00 83 1015.6